Location: *
(48.4333°N, 5.0333°W)
Time: 02:30:59
(UTC+00:00)

LilacSat-2 - Pass Details

Date: 30 October 2021
Orbit: 511 x 532 km, 97.5° (Epoch: 03 December)

Event Time Altitude Azimuth Distance (km) Brightness Sun altitude
Rises 06:22:17 0° 12° (NNE) 2,637 ? -7.3°
Reaches altitude 10° 06:24:23 10° 12° (NNE) 1,746 ? -7.0°
Maximum altitude 06:28:09 83° 284° (WNW) 524 ? -6.4°
Drops below altitude 10° 06:31:53 10° 197° (SSW) 1,738 ? -5.8°
Sets 06:33:58 0° 197° (SSW) 2,622 ? -5.4°
